Time,TemperatureF,DewpointF,PressureIn,WindDirection,WindDirectionDegrees,WindSpeedMPH,WindSpeedGustMPH,Humidity,HourlyPrecipIn,Conditions,Clouds,dailyrainin,SoftwareType,DateUTC
2013-05-14 00:01:00,62.0,33.0,29.69,North,1,4.0,-999.0,33,-99.99,,,-99.99,,2013-05-14 06:01:00,
2013-05-14 00:12:00,62.0,33.0,29.69,North,1,4.0,-999.0,33,-99.99,,,-99.99,,2013-05-14 06:12:00,
2013-05-14 00:21:00,61.0,33.0,29.70,North,10,3.0,-999.0,35,-99.99,,,-99.99,,2013-05-14 06:21:00,
2013-05-14 00:32:00,60.0,32.0,29.69,North,3,5.0,-999.0,35,-99.99,,,-99.99,,2013-05-14 06:32:00,
2013-05-14 00:42:00,60.0,32.0,29.69,North,3,5.0,-999.0,35,-99.99,,,-99.99,,2013-05-14 06:42:00,
2013-05-14 00:51:00,61.0,33.0,29.69,NE,39,4.0,-999.0,35,-99.99,,,-99.99,,2013-05-14 06:51:00,
2013-05-14 01:01:00,60.0,34.0,29.68,North,1,4.0,-999.0,37,-99.99,,,-99.99,,2013-05-14 07:01:00,
2013-05-14 01:11:00,60.0,34.0,29.68,North,1,4.0,-999.0,37,-99.99,,,-99.99,,2013-05-14 07:11:00,
2013-05-14 01:21:00,59.0,33.0,29.67,North,1,2.0,-999.0,38,-99.99,,,-99.99,,2013-05-14 07:21:00,
2013-05-14 01:31:00,57.0,34.0,29.69,NNE,30,1.0,-999.0,42,-99.99,,,-99.99,,2013-05-14 07:31:00,
2013-05-14 01:41:00,55.0,34.0,29.70,NNE,15,1.0,-999.0,45,-99.99,,,-99.99,,2013-05-14 07:41:00,
2013-05-14 01:52:00,55.0,34.0,29.70,NNE,15,1.0,-999.0,45,-99.99,,,-99.99,,2013-05-14 07:52:00,
2013-05-14 02:02:00,55.0,35.0,29.69,North,7,2.0,-999.0,47,-99.99,,,-99.99,,2013-05-14 08:02:00,
2013-05-14 02:11:00,55.0,35.0,29.69,North,7,2.0,-999.0,47,-99.99,,,-99.99,,2013-05-14 08:11:00,
2013-05-14 02:21:00,55.0,35.0,29.69,North,3,4.0,-999.0,46,-99.99,,,-99.99,,2013-05-14 08:21:00,
2013-05-14 02:31:00,55.0,33.0,29.68,ENE,57,5.0,-999.0,44,-99.99,,,-99.99,,2013-05-14 08:31:00,
2013-05-14 02:41:00,55.0,33.0,29.67,NNE,24,4.0,-999.0,44,-99.99,,,-99.99,,2013-05-14 08:41:00,
2013-05-14 02:51:00,55.0,33.0,29.67,NNE,24,4.0,-999.0,44,-99.99,,,-99.99,,2013-05-14 08:51:00,
2013-05-14 03:01:00,55.0,34.0,29.67,ENE,57,4.0,-999.0,45,-99.99,,,-99.99,,2013-05-14 09:01:00,
2013-05-14 03:11:00,55.0,34.0,29.67,ENE,57,4.0,-999.0,45,-99.99,,,-99.99,,2013-05-14 09:11:00,
2013-05-14 03:21:00,54.0,34.0,29.67,NNE,27,6.0,-999.0,46,-99.99,,,-99.99,,2013-05-14 09:21:00,
2013-05-14 03:32:00,54.0,34.0,29.67,NE,39,4.0,-999.0,47,-99.99,,,-99.99,,2013-05-14 09:32:00,
2013-05-14 03:44:00,54.0,34.0,29.67,NE,39,4.0,-999.0,47,-99.99,,,-99.99,,2013-05-14 09:44:00,
2013-05-14 03:54:00,54.0,34.0,29.68,NE,41,3.0,-999.0,47,-99.99,,,-99.99,,2013-05-14 09:54:00,
2013-05-14 04:04:00,54.0,34.0,29.67,NE,51,5.0,-999.0,47,-99.99,,,-99.99,,2013-05-14 10:04:00,
2013-05-14 04:14:00,54.0,34.0,29.67,NE,51,5.0,-999.0,47,-99.99,,,-99.99,,2013-05-14 10:14:00,
2013-05-14 04:25:00,54.0,34.0,29.68,NE,55,5.0,-999.0,47,-99.99,,,-99.99,,2013-05-14 10:25:00,
2013-05-14 04:32:00,53.0,33.0,29.68,NE,43,4.0,-999.0,47,-99.99,,,-99.99,,2013-05-14 10:32:00,
2013-05-14 04:42:00,53.0,33.0,29.68,NE,43,4.0,-999.0,47,-99.99,,,-99.99,,2013-05-14 10:42:00,
2013-05-14 04:52:00,52.0,33.0,29.68,NE,47,4.0,-999.0,48,-99.99,,,-99.99,,2013-05-14 10:52:00,
2013-05-14 05:02:00,52.0,33.0,29.67,NE,48,3.0,-999.0,48,-99.99,,,-99.99,,2013-05-14 11:02:00,
2013-05-14 05:11:00,52.0,33.0,29.67,NE,48,3.0,-999.0,48,-99.99,,,-99.99,,2013-05-14 11:11:00,
2013-05-14 05:21:00,51.0,33.0,29.69,ENE,57,4.0,-999.0,49,-99.99,,,-99.99,,2013-05-14 11:21:00,
2013-05-14 05:32:00,51.0,33.0,29.69,NNE,20,2.0,-999.0,50,-99.99,,,-99.99,,2013-05-14 11:32:00,
2013-05-14 05:43:00,51.0,33.0,29.69,NNE,20,2.0,-999.0,50,-99.99,,,-99.99,,2013-05-14 11:43:00,
2013-05-14 05:52:00,51.0,34.0,29.68,NE,54,3.0,-999.0,51,-99.99,,,-99.99,,2013-05-14 11:52:00,
2013-05-14 06:02:00,51.0,34.0,29.67,NE,51,4.0,-999.0,51,-99.99,,,-99.99,,2013-05-14 12:02:00,
2013-05-14 06:12:00,51.0,34.0,29.67,NE,51,4.0,-999.0,51,-99.99,,,-99.99,,2013-05-14 12:12:00,
2013-05-14 06:21:00,50.0,33.0,29.68,NE,49,0.0,-999.0,51,-99.99,,,-99.99,,2013-05-14 12:21:00,
2013-05-14 06:31:00,49.0,33.0,29.70,NE,49,0.0,-999.0,54,-99.99,,,-99.99,,2013-05-14 12:31:00,
2013-05-14 06:42:00,49.0,33.0,29.70,NE,49,0.0,-999.0,54,-99.99,,,-99.99,,2013-05-14 12:42:00,
2013-05-14 06:51:00,50.0,33.0,29.70,NE,49,1.0,-999.0,52,-99.99,,,-99.99,,2013-05-14 12:51:00,
2013-05-14 07:01:00,49.0,33.0,29.71,NE,48,1.0,-999.0,53,-99.99,,,-99.99,,2013-05-14 13:01:00,
2013-05-14 07:11:00,49.0,33.0,29.71,NE,48,1.0,-999.0,53,-99.99,,,-99.99,,2013-05-14 13:11:00,
2013-05-14 07:22:00,51.0,33.0,29.72,NE,48,0.0,-999.0,50,-99.99,,,-99.99,,2013-05-14 13:22:00,
2013-05-14 07:32:00,54.0,34.0,29.70,NE,54,2.0,-999.0,46,-99.99,,,-99.99,,2013-05-14 13:32:00,
2013-05-14 07:41:00,54.0,34.0,29.70,NE,54,2.0,-999.0,46,-99.99,,,-99.99,,2013-05-14 13:41:00,
2013-05-14 07:51:00,54.0,34.0,29.70,NE,54,2.0,-999.0,46,-99.99,,,-99.99,,2013-05-14 13:51:00,
2013-05-14 08:01:00,57.0,35.0,29.72,ENE,59,2.0,-999.0,43,-99.99,,,-99.99,,2013-05-14 14:01:00,
2013-05-14 08:11:00,57.0,35.0,29.72,ENE,59,2.0,-999.0,43,-99.99,,,-99.99,,2013-05-14 14:11:00,
2013-05-14 08:22:00,59.0,36.0,29.71,NNE,17,3.0,-999.0,42,-99.99,,,-99.99,,2013-05-14 14:22:00,
2013-05-14 08:31:00,62.0,36.0,29.70,NE,41,2.0,-999.0,38,-99.99,,,-99.99,,2013-05-14 14:31:00,
2013-05-14 08:41:00,62.0,36.0,29.70,NE,41,2.0,-999.0,38,-99.99,,,-99.99,,2013-05-14 14:41:00,
2013-05-14 08:52:00,64.0,36.0,29.70,ENE,58,3.0,-999.0,35,-99.99,,,-99.99,,2013-05-14 14:52:00,
2013-05-14 09:01:00,68.0,35.0,29.70,NE,52,1.0,-999.0,30,-99.99,,,-99.99,,2013-05-14 15:01:00,
2013-05-14 09:11:00,68.0,35.0,29.70,NE,52,1.0,-999.0,30,-99.99,,,-99.99,,2013-05-14 15:11:00,
2013-05-14 09:21:00,70.0,32.0,29.68,ESE,120,4.0,-999.0,24,-99.99,,,-99.99,,2013-05-14 15:21:00,
2013-05-14 09:32:00,71.0,31.0,29.67,ESE,110,5.0,-999.0,23,-99.99,,,-99.99,,2013-05-14 15:32:00,
2013-05-14 09:42:00,72.0,31.0,29.68,ENE,65,5.0,-999.0,22,-99.99,,,-99.99,,2013-05-14 15:42:00,
2013-05-14 09:53:00,72.0,31.0,29.68,ENE,65,5.0,-999.0,22,-99.99,,,-99.99,,2013-05-14 15:53:00,
2013-05-14 10:02:00,70.0,30.0,29.71,ENE,76,4.0,-999.0,23,-99.99,,,-99.99,,2013-05-14 16:02:00,
2013-05-14 10:12:00,70.0,30.0,29.71,ENE,76,4.0,-999.0,23,-99.99,,,-99.99,,2013-05-14 16:12:00,
2013-05-14 10:23:00,70.0,30.0,29.71,ESE,114,3.0,-999.0,23,-99.99,,,-99.99,,2013-05-14 16:23:00,
2013-05-14 10:33:00,72.0,31.0,29.71,SSE,148,3.0,-999.0,22,-99.99,,,-99.99,,2013-05-14 16:33:00,
2013-05-14 10:43:00,72.0,31.0,29.71,SSE,148,3.0,-999.0,22,-99.99,,,-99.99,,2013-05-14 16:43:00,
2013-05-14 10:54:00,74.0,30.0,29.69,ENE,75,3.0,-999.0,20,-99.99,,,-99.99,,2013-05-14 16:54:00,
2013-05-14 11:03:00,75.0,31.0,29.67,ENE,61,5.0,-999.0,20,-99.99,,,-99.99,,2013-05-14 17:03:00,
2013-05-14 11:13:00,75.0,31.0,29.67,ENE,61,5.0,-999.0,20,-99.99,,,-99.99,,2013-05-14 17:13:00,
2013-05-14 11:24:00,76.0,29.0,29.67,ENE,72,3.0,-999.0,18,-99.99,,,-99.99,,2013-05-14 17:24:00,
2013-05-14 11:32:00,77.0,30.0,29.66,SSE,163,3.0,-999.0,18,-99.99,,,-99.99,,2013-05-14 17:32:00,
2013-05-14 11:43:00,77.0,30.0,29.66,SSE,163,3.0,-999.0,18,-99.99,,,-99.99,,2013-05-14 17:43:00,
2013-05-14 11:52:00,78.0,30.0,29.65,East,94,2.0,-999.0,17,-99.99,,,-99.99,,2013-05-14 17:52:00,
2013-05-14 12:01:00,79.0,30.0,29.64,ENE,65,2.0,-999.0,17,-99.99,,,-99.99,,2013-05-14 18:01:00,
2013-05-14 12:12:00,79.0,30.0,29.64,ENE,65,2.0,-999.0,17,-99.99,,,-99.99,,2013-05-14 18:12:00,
2013-05-14 12:22:00,80.0,30.0,29.64,SE,124,3.0,-999.0,16,-99.99,,,-99.99,,2013-05-14 18:22:00,
2013-05-14 12:32:00,80.0,30.0,29.62,WSW,253,2.0,-999.0,16,-99.99,,,-99.99,,2013-05-14 18:32:00,
2013-05-14 12:42:00,80.0,30.0,29.62,WSW,253,2.0,-999.0,16,-99.99,,,-99.99,,2013-05-14 18:42:00,
2013-05-14 12:52:00,80.0,28.0,29.62,WSW,245,2.0,-999.0,15,-99.99,,,-99.99,,2013-05-14 18:52:00,
2013-05-14 13:01:00,81.0,29.0,29.64,SSE,149,1.0,-999.0,15,-99.99,,,-99.99,,2013-05-14 19:01:00,
2013-05-14 13:11:00,81.0,29.0,29.64,SSE,149,1.0,-999.0,15,-99.99,,,-99.99,,2013-05-14 19:11:00,
2013-05-14 13:21:00,81.0,29.0,29.62,SW,214,5.0,-999.0,15,-99.99,,,-99.99,,2013-05-14 19:21:00,
2013-05-14 13:31:00,82.0,26.0,29.62,West,268,4.0,-999.0,13,-99.99,,,-99.99,,2013-05-14 19:31:00,
2013-05-14 13:41:00,82.0,26.0,29.62,West,268,4.0,-999.0,13,-99.99,,,-99.99,,2013-05-14 19:41:00,
2013-05-14 13:52:00,82.0,24.0,29.60,West,270,6.0,-999.0,12,-99.99,,,-99.99,,2013-05-14 19:52:00,
2013-05-14 14:02:00,84.0,26.0,29.59,WNW,285,2.0,-999.0,12,-99.99,,,-99.99,,2013-05-14 20:02:00,
2013-05-14 14:11:00,84.0,26.0,29.59,WNW,285,2.0,-999.0,12,-99.99,,,-99.99,,2013-05-14 20:11:00,
2013-05-14 14:22:00,84.0,24.0,29.57,WSW,250,5.0,-999.0,11,-99.99,,,-99.99,,2013-05-14 20:22:00,
2013-05-14 14:32:00,84.0,22.0,29.57,SSW,212,2.0,-999.0,10,-99.99,,,-99.99,,2013-05-14 20:32:00,
2013-05-14 14:44:00,84.0,22.0,29.57,SSW,212,2.0,-999.0,10,-99.99,,,-99.99,,2013-05-14 20:44:00,
2013-05-14 14:51:00,85.0,32.0,29.57,ENE,58,7.0,-999.0,15,-99.99,,,-99.99,,2013-05-14 20:51:00,
2013-05-14 15:03:00,83.0,31.0,29.56,NNW,347,16.0,-999.0,15,-99.99,,,-99.99,,2013-05-14 21:03:00,
2013-05-14 15:12:00,83.0,31.0,29.56,NNW,347,16.0,-999.0,15,-99.99,,,-99.99,,2013-05-14 21:12:00,
2013-05-14 15:22:00,82.0,31.0,29.58,North,352,15.0,-999.0,16,-99.99,,,-99.99,,2013-05-14 21:22:00,
2013-05-14 15:33:00,82.0,30.0,29.57,North,4,10.0,-999.0,15,-99.99,,,-99.99,,2013-05-14 21:33:00,
2013-05-14 15:42:00,82.0,30.0,29.57,North,4,10.0,-999.0,15,-99.99,,,-99.99,,2013-05-14 21:42:00,
2013-05-14 15:52:00,81.0,31.0,29.57,NNE,15,13.0,-999.0,16,-99.99,,,-99.99,,2013-05-14 21:52:00,
2013-05-14 16:03:00,81.0,31.0,29.58,North,1,11.0,-999.0,16,-99.99,,,-99.99,,2013-05-14 22:03:00,
2013-05-14 16:13:00,81.0,31.0,29.58,North,1,11.0,-999.0,16,-99.99,,,-99.99,,2013-05-14 22:13:00,
2013-05-14 16:24:00,81.0,29.0,29.57,North,1,12.0,-999.0,15,-99.99,,,-99.99,,2013-05-14 22:24:00,
2013-05-14 16:34:00,80.0,30.0,29.57,North,357,14.0,-999.0,16,-99.99,,,-99.99,,2013-05-14 22:34:00,
2013-05-14 16:45:00,80.0,30.0,29.57,North,357,14.0,-999.0,16,-99.99,,,-99.99,,2013-05-14 22:45:00,
2013-05-14 16:54:00,80.0,28.0,29.57,NNW,331,14.0,-999.0,15,-99.99,,,-99.99,,2013-05-14 22:54:00,
2013-05-14 17:03:00,80.0,28.0,29.57,North,357,14.0,-999.0,15,-99.99,,,-99.99,,2013-05-14 23:03:00,
2013-05-14 17:12:00,80.0,28.0,29.57,North,357,14.0,-999.0,15,-99.99,,,-99.99,,2013-05-14 23:12:00,
2013-05-14 17:21:00,79.0,30.0,29.58,North,359,13.0,-999.0,17,-99.99,,,-99.99,,2013-05-14 23:21:00,
2013-05-14 17:31:00,77.0,30.0,29.57,North,0,13.0,-999.0,18,-99.99,,,-99.99,,2013-05-14 23:31:00,
2013-05-14 17:44:00,77.0,30.0,29.57,North,0,13.0,-999.0,18,-99.99,,,-99.99,,2013-05-14 23:44:00,
2013-05-14 17:52:00,77.0,30.0,29.58,North,1,13.0,-999.0,18,-99.99,,,-99.99,,2013-05-14 23:52:00,
2013-05-14 18:01:00,78.0,31.0,29.58,North,359,10.0,-999.0,18,-99.99,,,-99.99,,2013-05-15 00:01:00,
2013-05-14 18:11:00,78.0,31.0,29.58,North,359,10.0,-999.0,18,-99.99,,,-99.99,,2013-05-15 00:11:00,
2013-05-14 18:21:00,77.0,30.0,29.58,NNE,30,9.0,-999.0,18,-99.99,,,-99.99,,2013-05-15 00:21:00,
2013-05-14 18:32:00,77.0,30.0,29.58,NE,44,6.0,-999.0,18,-99.99,,,-99.99,,2013-05-15 00:32:00,
2013-05-14 18:41:00,77.0,30.0,29.58,NE,44,6.0,-999.0,18,-99.99,,,-99.99,,2013-05-15 00:41:00,
2013-05-14 18:51:00,77.0,30.0,29.57,NNE,15,7.0,-999.0,18,-99.99,,,-99.99,,2013-05-15 00:51:00,
2013-05-14 19:01:00,77.0,30.0,29.55,NNE,15,5.0,-999.0,18,-99.99,,,-99.99,,2013-05-15 01:01:00,
2013-05-14 19:11:00,77.0,30.0,29.55,NNE,15,5.0,-999.0,18,-99.99,,,-99.99,,2013-05-15 01:11:00,
2013-05-14 19:21:00,77.0,30.0,29.55,NNE,17,3.0,-999.0,18,-99.99,,,-99.99,,2013-05-15 01:21:00,
2013-05-14 19:31:00,76.0,29.0,29.55,NNE,15,4.0,-999.0,18,-99.99,,,-99.99,,2013-05-15 01:31:00,
2013-05-14 19:42:00,76.0,29.0,29.55,NNE,15,4.0,-999.0,18,-99.99,,,-99.99,,2013-05-15 01:42:00,
2013-05-14 19:52:00,75.0,30.0,29.56,North,0,4.0,-999.0,19,-99.99,,,-99.99,,2013-05-15 01:52:00,
2013-05-14 20:01:00,74.0,30.0,29.52,North,359,7.0,-999.0,20,-99.99,,,-99.99,,2013-05-15 02:01:00,
2013-05-14 20:11:00,74.0,30.0,29.52,North,359,7.0,-999.0,20,-99.99,,,-99.99,,2013-05-15 02:11:00,
2013-05-14 20:21:00,74.0,32.0,29.54,North,1,8.0,-999.0,21,-99.99,,,-99.99,,2013-05-15 02:21:00,
2013-05-14 20:31:00,73.0,30.0,29.54,North,11,5.0,-999.0,20,-99.99,,,-99.99,,2013-05-15 02:31:00,
2013-05-14 20:41:00,73.0,30.0,29.54,North,11,5.0,-999.0,20,-99.99,,,-99.99,,2013-05-15 02:41:00,
2013-05-14 20:51:00,73.0,30.0,29.54,NE,44,8.0,-999.0,20,-99.99,,,-99.99,,2013-05-15 02:51:00,
2013-05-14 21:01:00,73.0,30.0,29.49,NW,326,7.0,-999.0,20,-99.99,,,-99.99,,2013-05-15 03:01:00,
2013-05-14 21:12:00,73.0,30.0,29.49,NW,326,7.0,-999.0,20,-99.99,,,-99.99,,2013-05-15 03:12:00,
2013-05-14 21:21:00,74.0,26.0,29.49,East,82,9.0,-999.0,17,-99.99,,,-99.99,,2013-05-15 03:21:00,
2013-05-14 21:33:00,73.0,30.0,29.49,NNW,347,7.0,-999.0,20,-99.99,,,-99.99,,2013-05-15 03:33:00,
2013-05-14 21:44:00,72.0,30.0,29.51,ENE,60,6.0,-999.0,21,-99.99,,,-99.99,,2013-05-15 03:44:00,
2013-05-14 21:54:00,72.0,30.0,29.51,ENE,60,6.0,-999.0,21,-99.99,,,-99.99,,2013-05-15 03:54:00,
2013-05-14 22:03:00,71.0,32.0,29.52,ENE,68,2.0,-999.0,24,-99.99,,,-99.99,,2013-05-15 04:03:00,
2013-05-14 22:12:00,71.0,32.0,29.52,ENE,68,2.0,-999.0,24,-99.99,,,-99.99,,2013-05-15 04:12:00,
2013-05-14 22:23:00,72.0,33.0,29.52,ENE,63,11.0,-999.0,24,-99.99,,,-99.99,,2013-05-15 04:23:00,
2013-05-14 22:33:00,72.0,32.0,29.51,ENE,65,9.0,-999.0,23,-99.99,,,-99.99,,2013-05-15 04:33:00,
2013-05-14 22:42:00,72.0,32.0,29.51,ENE,65,9.0,-999.0,23,-99.99,,,-99.99,,2013-05-15 04:42:00,
2013-05-14 22:52:00,71.0,32.0,29.52,ENE,76,5.0,-999.0,24,-99.99,,,-99.99,,2013-05-15 04:52:00,
2013-05-14 23:02:00,71.0,31.0,29.50,SE,138,1.0,-999.0,23,-99.99,,,-99.99,,2013-05-15 05:02:00,
2013-05-14 23:11:00,71.0,31.0,29.50,SE,138,1.0,-999.0,23,-99.99,,,-99.99,,2013-05-15 05:11:00,
2013-05-14 23:22:00,70.0,33.0,29.53,SSE,152,3.0,-999.0,25,-99.99,,,-99.99,,2013-05-15 05:22:00,
2013-05-14 23:32:00,70.0,34.0,29.54,ESE,106,6.0,-999.0,26,-99.99,,,-99.99,,2013-05-15 05:32:00,
2013-05-14 23:42:00,70.0,34.0,29.54,ESE,106,6.0,-999.0,26,-99.99,,,-99.99,,2013-05-15 05:42:00,
2013-05-14 23:52:00,70.0,34.0,29.54,ENE,63,5.0,-999.0,27,-99.99,,,-99.99,,2013-05-15 05:52:00,